Belmont, MS

6:22 PM CDT on August 28, 2016 (GMT -0500)
Tishomingo Cnty AP, Belmont,

Weather History for K01M - January, 2014

Change the Weather History Date:

Sunday, January 5, 2014

  Actual Average (KTUP) Record (KTUP)
Temperature  
Mean Temperature 39 °F 42 °F  
Max Temperature 55 °F 51 °F 75 °F (2005)
Min Temperature 23 °F 32 °F 10 °F (1959)
Degree Days  
Heating Degree Days 26 24  
Month to date heating degree days 116  
Since 1 July heating degree days 1289  
Cooling Degree Days 0 0  
Month to date cooling degree days 0  
Year to date cooling degree days 0  
Moisture  
Dew Point 36 °F    
Average Humidity 85    
Maximum Humidity 96    
Minimum Humidity 73    
Precipitation  
Precipitation 0.23 in 0.15 in 2.77 in (1962)
Month to date precipitation 0.76  
Year to date precipitation 0.76  
Snow  
Snow 0.00 in 0.10 in 0.20 in (1940)
Month to date snowfall 0.2  
Since 1 July snowfall 0.5  
Snow Depth -    
Sea Level Pressure  
Sea Level Pressure 29.93 in    
Wind  
Wind Speed 10 mph (SSW)    
Max Wind Speed 21 mph    
Max Gust Speed 32 mph    
Visibility 9 miles    
Events Rain , Snow    
T = Trace of Precipitation, MM = Missing Value Source: NWS Daily Summary

Daily Weather History Graph

Daily Weather History Graph

Search for Another Location

Airport or City:

Trip Planner

Search our weather history database for the weather conditions in past years. The results will help you decide how hot, cold, wet, or windy it might be!

Date:

Astronomy

Jan. 05, 2014 Rise Set
Actual Time 7:00 AM CST 4:56 PM CST
Civil Twilight 6:32 AM CST 5:24 PM CST
Nautical Twilight 6:01 AM CST 5:55 PM CST
Astronomical Twilight 5:30 AM CST 6:26 PM CST
Moon 9:54 AM CST (1/5) 10:09 PM CST (1/5)
Length of Visible Light 10h 52m
Length of Day
9h 56m
Waxing Crescent, 25% of the Moon is Illuminated
Jan 5
Waxing Crescent
Jan 7
First Quarter
Jan 15
Full
Jan 23
Last Quarter
Jan 30
New

Hourly Weather History & Observations

Time (CST) Temp. Windchill Dew Point Humidity Pressure Visibility Wind Dir Wind Speed Gust Speed Precip Events Conditions
12:15 AM 38.3 °F 34.8 °F 31.6 °F 77% 30.08 in 10.0 mi SSE 4.6 mph - N/A   Mostly Cloudy
12:35 AM 37.4 °F 34.9 °F 31.5 °F 79% 30.07 in 10.0 mi SSE 3.5 mph - N/A   Mostly Cloudy
12:55 AM 37.8 °F 35.3 °F 32.0 °F 80% 30.08 in 10.0 mi SSE 3.5 mph - N/A   Mostly Cloudy
1:15 AM 37.6 °F 33.1 °F 32.0 °F 80% 30.07 in 10.0 mi SSE 5.8 mph - N/A   Overcast
1:35 AM 37.6 °F 35.1 °F 32.0 °F 80% 30.07 in 10.0 mi SSE 3.5 mph - N/A   Overcast
1:55 AM 37.6 °F 31.6 °F 32.2 °F 81% 30.07 in 10.0 mi SSE 8.1 mph - N/A   Overcast
2:15 AM 37.8 °F 30.7 °F 33.3 °F 84% 30.06 in 10.0 mi SSE 10.4 mph - N/A   Overcast
2:35 AM 37.4 °F 32.8 °F 33.1 °F 84% 30.06 in 10.0 mi SSE 5.8 mph - N/A   Overcast
2:55 AM 37.6 °F 31.0 °F 33.8 °F 86% 30.04 in 10.0 mi SE 9.2 mph - N/A   Overcast
3:15 AM 37.8 °F 31.8 °F 34.2 °F 87% 30.03 in 10.0 mi SE 8.1 mph - N/A   Overcast
3:35 AM 37.8 °F 32.5 °F 34.3 °F 87% 30.02 in 10.0 mi SSE 6.9 mph - N/A   Overcast
3:55 AM 38.3 °F 33.2 °F 34.7 °F 87% 30.01 in 10.0 mi SSE 6.9 mph - N/A   Overcast
4:15 AM 38.7 °F 33.6 °F 35.1 °F 87% 30.01 in 10.0 mi SSE 6.9 mph - N/A   Mostly Cloudy
4:35 AM 39.2 °F 33.0 °F 35.2 °F 86% 29.99 in 10.0 mi SSE 9.2 mph - N/A   Overcast
4:55 AM 39.4 °F 33.2 °F 35.6 °F 86% 29.98 in 10.0 mi SSE 9.2 mph - N/A   Mostly Cloudy
5:15 AM 40.3 °F 33.9 °F 36.1 °F 85% 29.98 in 10.0 mi SSE 10.4 mph 16.1 mph N/A   Mostly Cloudy
5:35 AM 41.0 °F 34.3 °F 36.7 °F 85% 29.98 in 10.0 mi SSE 11.5 mph 18.4 mph N/A   Overcast
5:55 AM 41.5 °F 34.6 °F 37.0 °F 84% 29.96 in 10.0 mi SSE 12.7 mph 18.4 mph N/A   Overcast
6:15 AM 41.2 °F 34.5 °F 37.0 °F 85% 29.96 in 10.0 mi SSE 11.5 mph 16.1 mph N/A   Scattered Clouds
6:35 AM 41.4 °F 35.2 °F 37.4 °F 86% 29.96 in 10.0 mi SSE 10.4 mph 17.3 mph N/A   Scattered Clouds
6:55 AM 42.1 °F 34.9 °F 37.4 °F 83% 29.96 in 10.0 mi South 13.8 mph 21.9 mph N/A   Mostly Cloudy
7:15 AM 42.3 °F 35.9 °F 37.8 °F 84% 29.96 in 10.0 mi SSE 11.5 mph 20.7 mph N/A   Overcast
7:35 AM 43.0 °F 36.4 °F 38.3 °F 84% 29.96 in 10.0 mi SSE 12.7 mph 20.7 mph N/A   Overcast
7:55 AM 43.5 °F 37.1 °F 38.5 °F 82% 29.95 in 10.0 mi SSE 12.7 mph 19.6 mph N/A   Mostly Cloudy
8:15 AM 44.1 °F 38.1 °F 38.8 °F 82% 29.95 in 10.0 mi SSE 11.5 mph 24.2 mph N/A   Scattered Clouds
8:35 AM 45.5 °F 39.2 °F 39.6 °F 80% 29.95 in 10.0 mi SSE 13.8 mph 24.2 mph N/A   Scattered Clouds
8:55 AM 45.7 °F 39.8 °F 39.9 °F 80% 29.94 in 10.0 mi SSE 12.7 mph 21.9 mph N/A   Mostly Cloudy
9:15 AM 46.2 °F 39.8 °F 40.3 °F 80% 29.93 in 10.0 mi South 15.0 mph 19.6 mph N/A   Overcast
9:35 AM 46.6 °F - 41.0 °F 81% 29.90 in 10.0 mi SSE 15.0 mph 25.3 mph N/A   Overcast
9:55 AM 47.5 °F - 41.9 °F 81% 29.89 in 10.0 mi South 10.4 mph 23.0 mph N/A   Scattered Clouds
10:15 AM 49.1 °F - 43.0 °F 79% 29.89 in 10.0 mi South 16.1 mph 24.2 mph N/A   Scattered Clouds
10:35 AM 49.3 °F - 43.2 °F 79% 29.88 in 10.0 mi South 13.8 mph 21.9 mph N/A   Scattered Clouds
10:55 AM 50.5 °F - 44.2 °F 79% 29.86 in 10.0 mi South 13.8 mph 23.0 mph N/A   Mostly Cloudy
11:15 AM 51.8 °F - 44.8 °F 77% 29.83 in 10.0 mi South 16.1 mph 21.9 mph N/A   Overcast
11:35 AM 51.8 °F - 45.5 °F 79% 29.81 in 10.0 mi South 18.4 mph 25.3 mph N/A   Scattered Clouds
11:55 AM 52.7 °F - 46.0 °F 78% 29.79 in 10.0 mi South 16.1 mph 25.3 mph N/A   Mostly Cloudy
12:15 PM 54.3 °F - 46.8 °F 76% 29.77 in 10.0 mi South 17.3 mph 23.0 mph N/A   Mostly Cloudy
12:35 PM 55.4 °F - 46.9 °F 73% 29.75 in 10.0 mi South 17.3 mph 25.3 mph N/A   Overcast
12:55 PM 55.4 °F - 47.3 °F 74% 29.73 in 10.0 mi South 15.0 mph 27.6 mph N/A   Overcast
1:15 PM 55.4 °F - 47.5 °F 75% 29.72 in 10.0 mi South 17.3 mph 25.3 mph N/A   Overcast
1:35 PM 54.1 °F - 48.2 °F 80% 29.72 in 4.0 mi South 18.4 mph 28.8 mph 0.04 in Rain Heavy Rain
1:55 PM 53.2 °F - 49.3 °F 86% 29.72 in 5.0 mi South 11.5 mph 20.7 mph 0.08 in Rain Rain
2:15 PM 52.7 °F - 49.8 °F 90% 29.72 in 5.0 mi South 10.4 mph - 0.02 in Rain Rain
2:35 PM 52.7 °F - 50.0 °F 91% 29.71 in 10.0 mi South 12.7 mph 19.6 mph 0.02 in   Overcast
2:55 PM 52.7 °F - 49.6 °F 89% 29.71 in 10.0 mi South 13.8 mph 18.4 mph 0.02 in Rain Rain
3:15 PM 52.7 °F - 49.8 °F 90% 29.72 in 10.0 mi SSW 10.4 mph 21.9 mph N/A Rain Rain
3:35 PM 52.7 °F - 50.2 °F 91% 29.72 in 5.0 mi SSW 13.8 mph 24.2 mph 0.01 in Rain Light Rain
3:55 PM 52.5 °F - 50.4 °F 92% 29.73 in 5.0 mi SSW 11.5 mph 20.7 mph 0.01 in Rain Rain
4:15 PM 52.0 °F - 50.7 °F 95% 29.73 in 3.0 mi SSW 11.5 mph 21.9 mph 0.01 in Rain Rain
4:35 PM 49.1 °F - 46.2 °F 90% 29.77 in 4.0 mi WNW 20.7 mph 32.2 mph 0.05 in Rain Rain
4:55 PM 44.4 °F 37.5 °F 43.0 °F 95% 29.79 in 4.0 mi WNW 15.0 mph 23.0 mph 0.06 in Rain Heavy Rain
5:15 PM 41.9 °F 35.4 °F 40.5 °F 95% 29.81 in 5.0 mi WNW 11.5 mph 19.6 mph 0.02 in Rain Rain
5:35 PM 39.2 °F 31.6 °F 37.4 °F 93% 29.84 in 7.0 mi West 12.7 mph 21.9 mph 0.03 in Rain Rain
5:55 PM 36.7 °F 28.4 °F 34.7 °F 93% 29.87 in 7.0 mi West 12.7 mph 23.0 mph 0.05 in Rain Rain
6:15 PM 34.9 °F 26.6 °F 33.8 °F 96% 29.89 in 5.0 mi WNW 11.5 mph 18.4 mph 0.01 in Rain Light Rain
6:35 PM 33.4 °F 24.8 °F 32.0 °F 94% 29.92 in 7.0 mi WNW 11.5 mph 21.9 mph 0.01 in   Light Drizzle
6:55 PM 32.0 °F 23.0 °F 31.1 °F 96% 29.95 in 4.0 mi NW 11.5 mph 18.4 mph 0.01 in Snow Light Snow
7:15 PM 30.7 °F 20.0 °F 29.1 °F 94% 29.96 in 10.0 mi WNW 15.0 mph 23.0 mph N/A   Overcast
7:35 PM 30.0 °F 20.0 °F 28.0 °F 92% 29.98 in 7.0 mi WNW 12.7 mph 23.0 mph N/A Snow Light Snow
7:55 PM 28.9 °F 17.7 °F 26.2 °F 90% 30.01 in 10.0 mi NW 15.0 mph 24.2 mph N/A   Overcast
8:15 PM 28.0 °F 18.6 °F 25.0 °F 88% 30.02 in 10.0 mi NW 10.4 mph 20.7 mph N/A   Overcast
8:35 PM 27.3 °F 16.1 °F 24.4 °F 89% 30.04 in 10.0 mi NW 13.8 mph 24.2 mph N/A   Overcast
8:55 PM 26.6 °F 16.8 °F 23.2 °F 87% 30.06 in 10.0 mi NW 10.4 mph 24.2 mph N/A   Overcast
9:15 PM 26.4 °F 13.6 °F 22.1 °F 84% 30.07 in 10.0 mi WNW 17.3 mph 26.5 mph N/A   Overcast
9:35 PM 25.7 °F 15.1 °F 21.7 °F 85% 30.08 in 10.0 mi NW 11.5 mph 24.2 mph N/A   Overcast
9:55 PM 25.3 °F 14.1 °F 20.3 °F 81% 30.09 in 10.0 mi NW 12.7 mph 25.3 mph N/A   Overcast
10:15 PM 24.8 °F 13.4 °F 19.8 °F 81% 30.10 in 10.0 mi NW 12.7 mph 20.7 mph N/A   Overcast
10:35 PM 24.4 °F 14.2 °F 19.4 °F 81% 30.11 in 10.0 mi NW 10.4 mph 20.7 mph N/A   Overcast
10:55 PM 23.9 °F 12.9 °F 19.0 °F 82% 30.12 in 10.0 mi NW 11.5 mph 20.7 mph N/A   Overcast
11:15 PM 23.7 °F 10.5 °F 18.1 °F 79% 30.14 in 10.0 mi NW 16.1 mph 23.0 mph N/A   Overcast
11:35 PM 23.0 °F 9.6 °F 16.9 °F 77% 30.15 in 10.0 mi NW 16.1 mph 24.2 mph N/A   Overcast
11:55 PM 23.0 °F 11.7 °F 17.2 °F 79% 30.16 in 10.0 mi NW 11.5 mph 20.7 mph N/A   Overcast